Regional Weather Roundup
Issued by NWS Northern Indiana

Home | Current Version | Previous Version | Text Only | Print | Product List | Glossary On
Versions: 1 2 3 4 5 6 7 8 9 10 11 12 13 14 15 16 17 18 19 20 21 22 23 24 25 26 27 28 29 30 31 32 33 34 35 36 37 38 39 40 41 42 43 44 45 46 47 48 49 50
000
ASUS43 KIWX 230010
RWRIWX

KIWX WEATHER ROUNDUP
NATIONAL WEATHER SERVICE NORTHERN INDIANA
700 PM EST WED NOV 22 2017

NOTE: "FAIR" INDICATES FEW OR NO CLOUDS BELOW 12,000 FEET WITH NO
SIGNIFICANT WEATHER AND/OR OBSTRUCTIONS TO VISIBILITY.

* THESE STATIONS ARE NOT UNDER NWS QUALITY CONTROL. THEY ALSO MAY NOT
  REPORT WEATHER SUCH AS PRECIPITATION OR FOG.

INZ001>027-230100-
NORTHERN INDIANA

CITY           SKY/WX    TMP DP  RH WIND       PRES   REMARKS
GARY*          MOCLDY    32  14  47 VRB5      30.26F WCI  27
VALPARAISO     CLOUDY    32  17  54 SW7       30.26S WCI  26
6HR MIN TEMP:  32; 6HR MAX TEMP:  38;

MICHIGAN CITY* PTCLDY    30  23  74 CALM      30.26F
LAPORTE*       PTCLDY    29  20  68 SW3       30.26S
6HR MIN TEMP:  29; 6HR MAX TEMP:  36;

KNOX*          CLOUDY    28  21  74 CALM      30.25F
SOUTH BEND     PTCLDY    28  23  81 CALM      30.25F
6HR MIN TEMP:  27; 6HR MAX TEMP:  36;

ELKHART*       PTCLDY    32  21  64 CALM      30.25S
GOSHEN         CLOUDY    31  23  72 CALM      30.24F
6HR MIN TEMP:  28; 6HR MAX TEMP:  36;

MONTICELLO*    PTCLDY    30  21  69 SW3       30.26F
6HR MIN TEMP:  29; 6HR MAX TEMP:  36;

LOGANSPORT*    CLOUDY    30  27  86 SW5       30.27F WCI  25
ROCHESTER*     CLOUDY    32  25  74 W3        30.26S
WARSAW*        PTCLDY    30  23  74 CALM      30.25S
AUBURN*        PTCLDY    28  23  80 CALM      30.25F
FORT WAYNE     CLOUDY    30  22  72 E3        30.26F
6HR MIN TEMP:  30; 6HR MAX TEMP:  39;

HUNTINGTON*    PTCLDY    29  23  77 CALM      30.26S
6HR MIN TEMP:  29; 6HR MAX TEMP:  37;

PERU/GRISSOM   CLOUDY    27  24  86 SW6       30.25F WCI  21
6HR MIN TEMP:  27; 6HR MAX TEMP:  38;

MARION*        CLEAR     29  26  85 SW5       30.27S WCI  24
6HR MIN TEMP:  23; 6HR MAX TEMP:  58;


$$
INZ028>050-230100-
CENTRAL INDIANA

CITY           SKY/WX    TMP DP  RH WIND       PRES   REMARKS
LAFAYETTE      CLOUDY    29  22  75 CALM      30.27F
6HR MIN TEMP:  27; 6HR MAX TEMP:  37;

KOKOMO*        PTCLDY    30  24  78 SW5       30.27S WCI  25
6HR MIN TEMP:  29; 6HR MAX TEMP:  37;

MUNCIE*        CLEAR     29  22  75 CALM      30.26S
6HR MIN TEMP:  29; 6HR MAX TEMP:  40;

INDIANAPOLIS   PTCLDY    31  22  69 NW3       30.27F
6HR MIN TEMP:  31; 6HR MAX TEMP:  39;


$$
MIZ043>046-050>051-056>058-064>065-071>073-077>080-230100-
SOUTHWEST LOWER MICHIGAN

CITY           SKY/WX    TMP DP  RH WIND       PRES   REMARKS
BATTLE CREEK   PTCLDY    29  20  69 CALM      30.23F
6HR MIN TEMP:  28; 6HR MAX TEMP:  35;

BENTON HARBOR  CLOUDY    31  22  69 S3        30.25F
6HR MIN TEMP:  30; 6HR MAX TEMP:  36;

COLDWATER*     CLOUDY    27  20  76 CALM      30.24S
6HR MIN TEMP:  27; 6HR MAX TEMP:  36;

HILLSDALE*     PTCLDY    25  18  74 S3        30.22F
HOLLAND        MOCLDY    32  23  69 SW3       30.23F
6HR MIN TEMP:  32; 6HR MAX TEMP:  36;

GRAND RAPIDS   CLOUDY    31  23  72 SW6       30.22F WCI  25
6HR MIN TEMP:  31; 6HR MAX TEMP:  35;

KALAMAZOO      CLOUDY    31  19  61 CALM      30.24S
6HR MIN TEMP:  30; 6HR MAX TEMP:  35;

STURGIS*       CLOUDY    28  21  75 CALM      30.23S
6HR MIN TEMP:  27; 6HR MAX TEMP:  35;

THREE RIVERS*  FAIR      31  24  73 CALM      30.24S
6HR MIN TEMP:  30; 6HR MAX TEMP:  38;


$$
OHZ001>008-015>018-024>025-230100-
NORTHWEST OHIO

CITY           SKY/WX    TMP DP  RH WIND       PRES   REMARKS
WAUSEON*       FAIR      30  23  74 S3        30.26S
DEFIANCE       CLEAR     28  19  69 CALM      30.27F
6HR MIN TEMP:  28; 6HR MAX TEMP:  36;

FINDLAY        CLEAR     28  18  66 E3        30.27S
6HR MIN TEMP:  28; 6HR MAX TEMP:  34;

TOLEDO EXPRESS CLEAR     27  21  78 S3        30.26F
6HR MIN TEMP:  27; 6HR MAX TEMP:  37;

TOLEDO METCALF CLEAR     29  19  66 S6        30.28F WCI  23
6HR MIN TEMP:  29; 6HR MAX TEMP:  37;

LIMA           CLEAR     28  22  78 CALM      30.26S
6HR MIN TEMP:  28; 6HR MAX TEMP:  34;


$$
AND FOR LAKE MICHIGAN COASTAL AND OPEN LAKE BUOY OBSERVATIONS

STATION/POSITION TEMP    WIND        PRES    VSBY  WAVE
                 AIR SEA DIR/SP/G                  HT/PER
                 (F)     (DEG/KT/KT) (MB)    (MI)  (FT/S)
CALUMET HARBOR    32     220/  4/  5 1023.6F
MICHIGAN CITY     33     150/  3/  4   N/A
BURNS HARBOR      34     210/  6/  8 1024.7F
SAINT JOSEPH      31     140/  1/  3 1024.7
SOUTH LAKE BUOY   33 47  260/ 10/ 14 1024.6F         2/ 6

$$
&&




USA.gov is the U.S. government's official web portal to all federal, state and local government web resources and services.